シャイン-シャルダハ彗星

61P/Shajn-Schaldach (2015)

English version
Home page
Updated on May 13, 2024

---------------------------------------------------------------------

・ プロフィール

・ 写真集

・ 軌道要素

Epoch 2015 Sept. 15.0 TT = JDT 2457280.5
T 2015 Oct. 2.14550 TT                                  MPCW
q   2.1139142            (2000.0)            P               Q
n   0.13953424     Peri.  221.91046     +0.90576363     -0.42268002
a   3.6814213      Node   163.01804     +0.41128983     +0.85939250
e   0.4257886      Incl.    6.00576     +0.10214167     +0.28772580
P   7.06
From 791 observations 2000 Apr. 22-2015 Aug. 25, mean residual 0".8.
     Nongravitational parameters A1 = +0.62, A2 = -0.2627.

・ 星図

・ 光度変化

        m1 = 11.5 + 5 logΔ + 10.0 log r(t + 65)

---------------------------------------------------------------------

軌道要素はM.P.E.C. 2015-Q71に掲載されたものです。
星図はステラナビゲータ Ver.8 (アストロアーツ) で作成したものです。
光度グラフはComet for Windowsで作成したものです。

---------------------------------------------------------------------

Copyright(C) Seiichi Yoshida (comet@aerith.net). All rights reserved.